Orbital Elements
Epoch 2022 Jan. 21.0 TT = JDT 2459600.5
T 2022 Feb. 12.51564 TT Rudenko
q 2.1838676 (2000.0) P Q
n 0.17626322 Peri. 135.66050 +0.00006939 -0.97480545
a 3.1503701 Node 312.94142 +0.81172621 +0.13032858
e 0.3067902 Incl. 17.74020 +0.58403814 -0.18102154
P 5.59
From 81 observations 2009 Sept. 18-2022 Jan. 22, mean residual 0".6.
|